owner,sensor,date,latitude,longitude,sea_surface_height_above_sea_level,qcFlag 
TCOON,ioos:station:TCOON:005:1,2015-08-01T00:12:00Z,27.6346,-97.2370,0.98,1111122 
TCOON,ioos:station:TCOON:005:1,2015-08-01T01:12:00Z,27.6346,-97.2370,0.986,1111122 
TCOON,ioos:station:TCOON:005:1,2015-08-01T02:24:00Z,27.6346,-97.2370,0.961,1111122 
TCOON,ioos:station:TCOON:005:1,2015-08-01T03:18:00Z,27.6346,-97.2370,0.938,1111122 
TCOON,ioos:station:TCOON:005:1,2015-08-01T04:18:00Z,27.6346,-97.2370,0.922,1111122 
TCOON,ioos:station:TCOON:005:1,2015-08-01T05:18:00Z,27.6346,-97.2370,0.911,1111122 
TCOON,ioos:station:TCOON:005:1,2015-08-01T06:24:00Z,27.6346,-97.2370,0.895,1111122 
TCOON,ioos:station:TCOON:005:1,2015-08-01T07:42:00Z,27.6346,-97.2370,0.894,1111122 
TCOON,ioos:station:TCOON:005:1,2015-08-01T08:18:00Z,27.6346,-97.2370,0.89,1111122 
TCOON,ioos:station:TCOON:005:1,2015-08-01T09:24:00Z,27.6346,-97.2370,0.895,1111122 
TCOON,ioos:station:TCOON:005:1,2015-08-01T10:24:00Z,27.6346,-97.2370,0.903,1111122 
TCOON,ioos:station:TCOON:005:1,2015-08-01T11:18:00Z,27.6346,-97.2370,0.911,1111122 
TCOON,ioos:station:TCOON:005:1,2015-08-01T12:30:00Z,27.6346,-97.2370,0.929,1111122 
TCOON,ioos:station:TCOON:005:1,2015-08-01T13:18:00Z,27.6346,-97.2370,0.941,1111122 
TCOON,ioos:station:TCOON:005:1,2015-08-01T14:18:00Z,27.6346,-97.2370,0.95,1111122 
TCOON,ioos:station:TCOON:005:1,2015-08-01T15:18:00Z,27.6346,-97.2370,0.962,1111122 
TCOON,ioos:station:TCOON:005:1,2015-08-01T17:12:00Z,27.6346,-97.2370,0.976,1111122 
TCOON,ioos:station:TCOON:005:1,2015-08-01T18:12:00Z,27.6346,-97.2370,0.983,1111122 
TCOON,ioos:station:TCOON:005:1,2015-08-01T19:12:00Z,27.6346,-97.2370,0.991,1111122 
TCOON,ioos:station:TCOON:005:1,2015-08-01T20:18:00Z,27.6346,-97.2370,1.001,1111122 
TCOON,ioos:station:TCOON:005:1,2015-08-01T21:18:00Z,27.6346,-97.2370,1.005,1111122 
TCOON,ioos:station:TCOON:005:1,2015-08-01T22:18:00Z,27.6346,-97.2370,1.009,1111122 
TCOON,ioos:station:TCOON:005:1,2015-08-01T23:12:00Z,27.6346,-97.2370,1.004,1111122 
TCOON,ioos:station:TCOON:005:1,2015-08-02T00:12:00Z,27.6346,-97.2370,0.989,1111122 
TCOON,ioos:station:TCOON:005:1,2015-08-02T01:12:00Z,27.6346,-97.2370,0.987,1111122 
TCOON,ioos:station:TCOON:005:1,2015-08-02T02:18:00Z,27.6346,-97.2370,0.981,1111122 
TCOON,ioos:station:TCOON:005:1,2015-08-02T03:18:00Z,27.6346,-97.2370,0.97,1111122 
TCOON,ioos:station:TCOON:005:1,2015-08-02T04:12:00Z,27.6346,-97.2370,0.961,1111122 
TCOON,ioos:station:TCOON:005:1,2015-08-02T05:18:00Z,27.6346,-97.2370,0.947,1111122 
TCOON,ioos:station:TCOON:005:1,2015-08-02T06:24:00Z,27.6346,-97.2370,0.93,1111122 
TCOON,ioos:station:TCOON:005:1,2015-08-02T07:30:00Z,27.6346,-97.2370,0.929,1111122 
TCOON,ioos:station:TCOON:005:1,2015-08-02T08:18:00Z,27.6346,-97.2370,0.929,1111122 
TCOON,ioos:station:TCOON:005:1,2015-08-02T09:18:00Z,27.6346,-97.2370,0.935,1111122 
TCOON,ioos:station:TCOON:005:1,2015-08-02T10:18:00Z,27.6346,-97.2370,0.946,1111122 
TCOON,ioos:station:TCOON:005:1,2015-08-02T11:18:00Z,27.6346,-97.2370,0.959,1111122 
TCOON,ioos:station:TCOON:005:1,2015-08-02T12:18:00Z,27.6346,-97.2370,0.979,1111122 
TCOON,ioos:station:TCOON:005:1,2015-08-03T04:18:00Z,27.6346,-97.2370,1.01,1111122 
TCOON,ioos:station:TCOON:005:1,2015-08-03T05:18:00Z,27.6346,-97.2370,1.0,1111122 
TCOON,ioos:station:TCOON:005:1,2015-08-03T06:18:00Z,27.6346,-97.2370,0.991,1111122 
TCOON,ioos:station:TCOON:005:1,2015-08-04T03:12:00Z,27.6346,-97.2370,0.994,1111122 
TCOON,ioos:station:TCOON:005:1,2015-08-04T04:12:00Z,27.6346,-97.2370,0.992,1111122 
TCOON,ioos:station:TCOON:005:1,2015-08-04T05:12:00Z,27.6346,-97.2370,0.988,1111122 
TCOON,ioos:station:TCOON:005:1,2015-08-04T06:12:00Z,27.6346,-97.2370,0.979,1111122 
TCOON,ioos:station:TCOON:005:1,2015-08-04T07:24:00Z,27.6346,-97.2370,0.967,1111122 
TCOON,ioos:station:TCOON:005:1,2015-08-04T08:12:00Z,27.6346,-97.2370,0.96,1111122 
TCOON,ioos:station:TCOON:005:1,2015-08-04T09:12:00Z,27.6346,-97.2370,0.963,1111122 
TCOON,ioos:station:TCOON:005:1,2015-08-04T10:12:00Z,27.6346,-97.2370,0.96,1111122 
TCOON,ioos:station:TCOON:005:1,2015-08-04T11:18:00Z,27.6346,-97.2370,0.968,1111122 
TCOON,ioos:station:TCOON:005:1,2015-08-04T12:18:00Z,27.6346,-97.2370,0.969,1111122 
TCOON,ioos:station:TCOON:005:1,2015-08-04T13:12:00Z,27.6346,-97.2370,0.969,1111122 
TCOON,ioos:station:TCOON:005:1,2015-08-04T14:12:00Z,27.6346,-97.2370,0.976,1111122 
TCOON,ioos:station:TCOON:005:1,2015-08-04T15:18:00Z,27.6346,-97.2370,0.973,1111122 
TCOON,ioos:station:TCOON:005:1,2015-08-04T20:00:00Z,27.6346,-97.2370,0.95,1111122 
TCOON,ioos:station:TCOON:005:1,2015-08-04T21:18:00Z,27.6346,-97.2370,0.943,1111122 
TCOON,ioos:station:TCOON:005:1,2015-08-04T23:06:00Z,27.6346,-97.2370,0.941,1111122 
TCOON,ioos:station:TCOON:005:1,2015-08-05T00:18:00Z,27.6346,-97.2370,0.941,1111122 
TCOON,ioos:station:TCOON:005:1,2015-08-05T01:18:00Z,27.6346,-97.2370,0.939,1111122 
TCOON,ioos:station:TCOON:005:1,2015-08-05T02:12:00Z,27.6346,-97.2370,0.947,1111122 
TCOON,ioos:station:TCOON:005:1,2015-08-05T03:12:00Z,27.6346,-97.2370,0.953,1111122 
TCOON,ioos:station:TCOON:005:1,2015-08-05T04:12:00Z,27.6346,-97.2370,0.952,1111122 
TCOON,ioos:station:TCOON:005:1,2015-08-05T05:12:00Z,27.6346,-97.2370,0.943,1111122 
TCOON,ioos:station:TCOON:005:1,2015-08-05T06:12:00Z,27.6346,-97.2370,0.942,1111122 
TCOON,ioos:station:TCOON:005:1,2015-08-05T07:24:00Z,27.6346,-97.2370,0.941,1111122 
TCOON,ioos:station:TCOON:005:1,2015-08-05T08:12:00Z,27.6346,-97.2370,0.936,1111122 
TCOON,ioos:station:TCOON:005:1,2015-08-05T09:12:00Z,27.6346,-97.2370,0.94,1111122 
TCOON,ioos:station:TCOON:005:1,2015-08-05T10:12:00Z,27.6346,-97.2370,0.939,1111122 
TCOON,ioos:station:TCOON:005:1,2015-08-05T11:12:00Z,27.6346,-97.2370,0.942,1111122 
TCOON,ioos:station:TCOON:005:1,2015-08-05T12:48:00Z,27.6346,-97.2370,0.943,1111122 
TCOON,ioos:station:TCOON:005:1,2015-08-05T13:12:00Z,27.6346,-97.2370,0.942,1111122 
TCOON,ioos:station:TCOON:005:1,2015-08-05T14:18:00Z,27.6346,-97.2370,0.944,1111122 
TCOON,ioos:station:TCOON:005:1,2015-08-05T15:36:00Z,27.6346,-97.2370,0.94,1111122 
TCOON,ioos:station:TCOON:005:1,2015-08-05T16:12:00Z,27.6346,-97.2370,0.935,1111122 
TCOON,ioos:station:TCOON:005:1,2015-08-05T17:54:00Z,27.6346,-97.2370,0.93,1111122 
TCOON,ioos:station:TCOON:005:1,2015-08-05T18:12:00Z,27.6346,-97.2370,0.928,1111122 
TCOON,ioos:station:TCOON:005:1,2015-08-05T19:12:00Z,27.6346,-97.2370,0.915,1111122 
TCOON,ioos:station:TCOON:005:1,2015-08-05T20:12:00Z,27.6346,-97.2370,0.905,1111122 
TCOON,ioos:station:TCOON:005:1,2015-08-05T21:18:00Z,27.6346,-97.2370,0.897,1111122 
TCOON,ioos:station:TCOON:005:1,2015-08-05T22:24:00Z,27.6346,-97.2370,0.889,1111122 
TCOON,ioos:station:TCOON:005:1,2015-08-05T23:18:00Z,27.6346,-97.2370,0.89,1111122 
TCOON,ioos:station:TCOON:005:1,2015-08-06T00:18:00Z,27.6346,-97.2370,0.892,1111122 
TCOON,ioos:station:TCOON:005:1,2015-08-06T01:18:00Z,27.6346,-97.2370,0.889,1111122 
TCOON,ioos:station:TCOON:005:1,2015-08-06T02:12:00Z,27.6346,-97.2370,0.893,1111122 
TCOON,ioos:station:TCOON:005:1,2015-08-06T03:12:00Z,27.6346,-97.2370,0.896,1111122 
TCOON,ioos:station:TCOON:005:1,2015-08-06T04:12:00Z,27.6346,-97.2370,0.898,1111122 
TCOON,ioos:station:TCOON:005:1,2015-08-06T05:12:00Z,27.6346,-97.2370,0.903,1111122 
TCOON,ioos:station:TCOON:005:1,2015-08-06T06:36:00Z,27.6346,-97.2370,0.905,1111122 
TCOON,ioos:station:TCOON:005:1,2015-08-06T08:06:00Z,27.6346,-97.2370,0.907,1111122 
TCOON,ioos:station:TCOON:005:1,2015-08-06T09:18:00Z,27.6346,-97.2370,0.912,1111122 
TCOON,ioos:station:TCOON:005:1,2015-08-06T11:06:00Z,27.6346,-97.2370,0.926,1111122 
TCOON,ioos:station:TCOON:005:1,2015-08-06T12:18:00Z,27.6346,-97.2370,0.923,1111122 
TCOON,ioos:station:TCOON:005:1,2015-08-06T13:12:00Z,27.6346,-97.2370,0.925,1111122 
TCOON,ioos:station:TCOON:005:1,2015-08-06T14:12:00Z,27.6346,-97.2370,0.925,1111122 
TCOON,ioos:station:TCOON:005:1,2015-08-06T15:24:00Z,27.6346,-97.2370,0.922,1111122 
TCOON,ioos:station:TCOON:005:1,2015-08-06T16:12:00Z,27.6346,-97.2370,0.916,1111122 
TCOON,ioos:station:TCOON:005:1,2015-08-06T17:12:00Z,27.6346,-97.2370,0.911,1111122 
TCOON,ioos:station:TCOON:005:1,2015-08-06T18:12:00Z,27.6346,-97.2370,0.899,1111122 
TCOON,ioos:station:TCOON:005:1,2015-08-06T19:48:00Z,27.6346,-97.2370,0.877,1111122 
TCOON,ioos:station:TCOON:005:1,2015-08-06T20:30:00Z,27.6346,-97.2370,0.87,1111122 
TCOON,ioos:station:TCOON:005:1,2015-08-06T22:30:00Z,27.6346,-97.2370,0.842,1111122 
TCOON,ioos:station:TCOON:005:1,2015-08-06T23:18:00Z,27.6346,-97.2370,0.842,1111122 
TCOON,ioos:station:TCOON:005:1,2015-08-07T00:18:00Z,27.6346,-97.2370,0.853,1111122 
TCOON,ioos:station:TCOON:005:1,2015-08-07T04:30:00Z,27.6346,-97.2370,0.861,1111122 
TCOON,ioos:station:TCOON:005:1,2015-08-07T06:12:00Z,27.6346,-97.2370,0.871,1111122 
TCOON,ioos:station:TCOON:005:1,2015-08-07T07:36:00Z,27.6346,-97.2370,0.895,1111122 
TCOON,ioos:station:TCOON:005:1,2015-08-07T08:24:00Z,27.6346,-97.2370,0.906,1111122 
TCOON,ioos:station:TCOON:005:1,2015-08-07T10:30:00Z,27.6346,-97.2370,0.926,1111122 
TCOON,ioos:station:TCOON:005:1,2015-08-07T11:12:00Z,27.6346,-97.2370,0.935,1111122 
TCOON,ioos:station:TCOON:005:1,2015-08-07T12:12:00Z,27.6346,-97.2370,0.942,1111122 
TCOON,ioos:station:TCOON:005:1,2015-08-07T13:12:00Z,27.6346,-97.2370,0.945,1111122 
TCOON,ioos:station:TCOON:005:1,2015-08-07T14:12:00Z,27.6346,-97.2370,0.949,1111122 
TCOON,ioos:station:TCOON:005:1,2015-08-07T15:12:00Z,27.6346,-97.2370,0.95,1111122 
TCOON,ioos:station:TCOON:005:1,2015-08-07T16:12:00Z,27.6346,-97.2370,0.946,1111122 
TCOON,ioos:station:TCOON:005:1,2015-08-07T17:12:00Z,27.6346,-97.2370,0.94,1111122 
TCOON,ioos:station:TCOON:005:1,2015-08-07T18:12:00Z,27.6346,-97.2370,0.933,1111122 
TCOON,ioos:station:TCOON:005:1,2015-08-07T19:12:00Z,27.6346,-97.2370,0.918,1111122 
TCOON,ioos:station:TCOON:005:1,2015-08-07T20:12:00Z,27.6346,-97.2370,0.903,1111122 
TCOON,ioos:station:TCOON:005:1,2015-08-07T21:18:00Z,27.6346,-97.2370,0.884,1111122 
TCOON,ioos:station:TCOON:005:1,2015-08-07T22:12:00Z,27.6346,-97.2370,0.873,1111122 
TCOON,ioos:station:TCOON:005:1,2015-08-07T23:12:00Z,27.6346,-97.2370,0.859,1111122 
TCOON,ioos:station:TCOON:005:1,2015-08-08T00:12:00Z,27.6346,-97.2370,0.846,1111122 
TCOON,ioos:station:TCOON:005:1,2015-08-08T01:18:00Z,27.6346,-97.2370,0.841,1111122 
TCOON,ioos:station:TCOON:005:1,2015-08-08T02:24:00Z,27.6346,-97.2370,0.848,1111122 
TCOON,ioos:station:TCOON:005:1,2015-08-08T03:18:00Z,27.6346,-97.2370,0.851,1111122 
TCOON,ioos:station:TCOON:005:1,2015-08-08T04:18:00Z,27.6346,-97.2370,0.853,1111122 
TCOON,ioos:station:TCOON:005:1,2015-08-08T05:30:00Z,27.6346,-97.2370,0.855,1111122 
TCOON,ioos:station:TCOON:005:1,2015-08-08T06:30:00Z,27.6346,-97.2370,0.858,1111122 
TCOON,ioos:station:TCOON:005:1,2015-08-08T07:12:00Z,27.6346,-97.2370,0.866,1111122 
TCOON,ioos:station:TCOON:005:1,2015-08-08T08:18:00Z,27.6346,-97.2370,0.877,1111122 
TCOON,ioos:station:TCOON:005:1,2015-08-08T09:18:00Z,27.6346,-97.2370,0.888,1111122 
TCOON,ioos:station:TCOON:005:1,2015-08-08T10:12:00Z,27.6346,-97.2370,0.903,1111122 
TCOON,ioos:station:TCOON:005:1,2015-08-08T11:18:00Z,27.6346,-97.2370,0.92,1111122 
TCOON,ioos:station:TCOON:005:1,2015-08-08T12:12:00Z,27.6346,-97.2370,0.927,1111122 
TCOON,ioos:station:TCOON:005:1,2015-08-08T13:12:00Z,27.6346,-97.2370,0.929,1111122 
TCOON,ioos:station:TCOON:005:1,2015-08-08T14:12:00Z,27.6346,-97.2370,0.931,1111122 
TCOON,ioos:station:TCOON:005:1,2015-08-08T15:12:00Z,27.6346,-97.2370,0.936,1111122 
TCOON,ioos:station:TCOON:005:1,2015-08-08T16:12:00Z,27.6346,-97.2370,0.935,1111122 
TCOON,ioos:station:TCOON:005:1,2015-08-08T17:12:00Z,27.6346,-97.2370,0.926,1111122 
TCOON,ioos:station:TCOON:005:1,2015-08-08T18:12:00Z,27.6346,-97.2370,0.917,1111122 
TCOON,ioos:station:TCOON:005:1,2015-08-08T19:12:00Z,27.6346,-97.2370,0.906,1111122 
TCOON,ioos:station:TCOON:005:1,2015-08-08T20:12:00Z,27.6346,-97.2370,0.897,1111122 
TCOON,ioos:station:TCOON:005:1,2015-08-08T21:12:00Z,27.6346,-97.2370,0.875,1111122 
TCOON,ioos:station:TCOON:005:1,2015-08-08T22:12:00Z,27.6346,-97.2370,0.861,1111122 
TCOON,ioos:station:TCOON:005:1,2015-08-08T23:12:00Z,27.6346,-97.2370,0.844,1111122 
TCOON,ioos:station:TCOON:005:1,2015-08-09T00:12:00Z,27.6346,-97.2370,0.828,1111122 
TCOON,ioos:station:TCOON:005:1,2015-08-09T01:12:00Z,27.6346,-97.2370,0.822,1111122 
TCOON,ioos:station:TCOON:005:1,2015-08-09T02:12:00Z,27.6346,-97.2370,0.824,1111122 
TCOON,ioos:station:TCOON:005:1,2015-08-09T03:12:00Z,27.6346,-97.2370,0.827,1111122 
TCOON,ioos:station:TCOON:005:1,2015-08-09T04:12:00Z,27.6346,-97.2370,0.827,1111122 
TCOON,ioos:station:TCOON:005:1,2015-08-09T05:12:00Z,27.6346,-97.2370,0.824,1111122 
TCOON,ioos:station:TCOON:005:1,2015-08-09T06:12:00Z,27.6346,-97.2370,0.827,1111122 
TCOON,ioos:station:TCOON:005:1,2015-08-09T07:12:00Z,27.6346,-97.2370,0.844,1111122 
TCOON,ioos:station:TCOON:005:1,2015-08-09T08:12:00Z,27.6346,-97.2370,0.867,1111122 
TCOON,ioos:station:TCOON:005:1,2015-08-09T09:12:00Z,27.6346,-97.2370,0.883,1111122 
TCOON,ioos:station:TCOON:005:1,2015-08-09T10:12:00Z,27.6346,-97.2370,0.896,1111122 
TCOON,ioos:station:TCOON:005:1,2015-08-09T11:18:00Z,27.6346,-97.2370,0.91,1111122 
TCOON,ioos:station:TCOON:005:1,2015-08-09T12:18:00Z,27.6346,-97.2370,0.922,1111122 
TCOON,ioos:station:TCOON:005:1,2015-08-09T13:18:00Z,27.6346,-97.2370,0.927,1111122 
TCOON,ioos:station:TCOON:005:1,2015-08-09T14:18:00Z,27.6346,-97.2370,0.93,1111122 
TCOON,ioos:station:TCOON:005:1,2015-08-09T15:18:00Z,27.6346,-97.2370,0.934,1111122 
TCOON,ioos:station:TCOON:005:1,2015-08-09T16:18:00Z,27.6346,-97.2370,0.943,1111122 
TCOON,ioos:station:TCOON:005:1,2015-08-09T17:12:00Z,27.6346,-97.2370,0.936,1111122 
TCOON,ioos:station:TCOON:005:1,2015-08-09T18:12:00Z,27.6346,-97.2370,0.931,1111122 
TCOON,ioos:station:TCOON:005:1,2015-08-09T19:12:00Z,27.6346,-97.2370,0.918,1111122 
TCOON,ioos:station:TCOON:005:1,2015-08-09T20:12:00Z,27.6346,-97.2370,0.906,1111122 
TCOON,ioos:station:TCOON:005:1,2015-08-09T21:12:00Z,27.6346,-97.2370,0.898,1111122 
TCOON,ioos:station:TCOON:005:1,2015-08-09T22:12:00Z,27.6346,-97.2370,0.88,1111122 
TCOON,ioos:station:TCOON:005:1,2015-08-09T23:12:00Z,27.6346,-97.2370,0.864,1111122 
TCOON,ioos:station:TCOON:005:1,2015-08-10T00:12:00Z,27.6346,-97.2370,0.846,1111122 
TCOON,ioos:station:TCOON:005:1,2015-08-10T01:12:00Z,27.6346,-97.2370,0.83,1111122 
TCOON,ioos:station:TCOON:005:1,2015-08-10T02:12:00Z,27.6346,-97.2370,0.821,1111122 
TCOON,ioos:station:TCOON:005:1,2015-08-10T03:12:00Z,27.6346,-97.2370,0.817,1111122 
TCOON,ioos:station:TCOON:005:1,2015-08-10T04:12:00Z,27.6346,-97.2370,0.823,1111122 
TCOON,ioos:station:TCOON:005:1,2015-08-10T05:12:00Z,27.6346,-97.2370,0.825,1111122 
TCOON,ioos:station:TCOON:005:1,2015-08-10T06:18:00Z,27.6346,-97.2370,0.832,1111122 
TCOON,ioos:station:TCOON:005:1,2015-08-10T07:12:00Z,27.6346,-97.2370,0.84,1111122 
TCOON,ioos:station:TCOON:005:1,2015-08-10T08:12:00Z,27.6346,-97.2370,0.855,1111122 
TCOON,ioos:station:TCOON:005:1,2015-08-10T09:12:00Z,27.6346,-97.2370,0.869,1111122 
TCOON,ioos:station:TCOON:005:1,2015-08-10T10:18:00Z,27.6346,-97.2370,0.888,1111122 
TCOON,ioos:station:TCOON:005:1,2015-08-10T11:24:00Z,27.6346,-97.2370,0.905,1111122 
TCOON,ioos:station:TCOON:005:1,2015-08-10T12:18:00Z,27.6346,-97.2370,0.916,1111122 
TCOON,ioos:station:TCOON:005:1,2015-08-10T13:24:00Z,27.6346,-97.2370,0.922,1111122 
TCOON,ioos:station:TCOON:005:1,2015-08-10T14:12:00Z,27.6346,-97.2370,0.932,1111122 
TCOON,ioos:station:TCOON:005:1,2015-08-10T15:12:00Z,27.6346,-97.2370,0.943,1111122 
TCOON,ioos:station:TCOON:005:1,2015-08-10T16:18:00Z,27.6346,-97.2370,0.953,1111122 
TCOON,ioos:station:TCOON:005:1,2015-08-10T17:12:00Z,27.6346,-97.2370,0.951,1111122 
TCOON,ioos:station:TCOON:005:1,2015-08-10T18:24:00Z,27.6346,-97.2370,0.947,1111122 
TCOON,ioos:station:TCOON:005:1,2015-08-10T19:18:00Z,27.6346,-97.2370,0.935,1111122 
TCOON,ioos:station:TCOON:005:1,2015-08-10T20:18:00Z,27.6346,-97.2370,0.93,1111122 
TCOON,ioos:station:TCOON:005:1,2015-08-10T21:18:00Z,27.6346,-97.2370,0.929,1111122 
TCOON,ioos:station:TCOON:005:1,2015-08-10T22:36:00Z,27.6346,-97.2370,0.903,1111122 
TCOON,ioos:station:TCOON:005:1,2015-08-10T23:24:00Z,27.6346,-97.2370,0.89,1111122 
TCOON,ioos:station:TCOON:005:1,2015-08-11T00:18:00Z,27.6346,-97.2370,0.876,1111122 
TCOON,ioos:station:TCOON:005:1,2015-08-11T01:12:00Z,27.6346,-97.2370,0.858,1111122 
TCOON,ioos:station:TCOON:005:1,2015-08-11T02:12:00Z,27.6346,-97.2370,0.846,1111122 
TCOON,ioos:station:TCOON:005:1,2015-08-11T03:18:00Z,27.6346,-97.2370,0.829,1111122 
TCOON,ioos:station:TCOON:005:1,2015-08-11T04:12:00Z,27.6346,-97.2370,0.819,1111122 
TCOON,ioos:station:TCOON:005:1,2015-08-11T05:12:00Z,27.6346,-97.2370,0.829,1111122 
TCOON,ioos:station:TCOON:005:1,2015-08-11T06:18:00Z,27.6346,-97.2370,0.83,1111122 
TCOON,ioos:station:TCOON:005:1,2015-08-11T07:12:00Z,27.6346,-97.2370,0.838,1111122 
TCOON,ioos:station:TCOON:005:1,2015-08-11T08:12:00Z,27.6346,-97.2370,0.846,1111122 
TCOON,ioos:station:TCOON:005:1,2015-08-11T09:12:00Z,27.6346,-97.2370,0.863,1111122 
TCOON,ioos:station:TCOON:005:1,2015-08-11T10:12:00Z,27.6346,-97.2370,0.883,1111122 
TCOON,ioos:station:TCOON:005:1,2015-08-11T11:12:00Z,27.6346,-97.2370,0.902,1111122 
TCOON,ioos:station:TCOON:005:1,2015-08-11T12:12:00Z,27.6346,-97.2370,0.915,1111122 
TCOON,ioos:station:TCOON:005:1,2015-08-11T13:18:00Z,27.6346,-97.2370,0.921,1111122 
TCOON,ioos:station:TCOON:005:1,2015-08-11T14:12:00Z,27.6346,-97.2370,0.929,1111122 
TCOON,ioos:station:TCOON:005:1,2015-08-11T15:18:00Z,27.6346,-97.2370,0.935,1111122 
TCOON,ioos:station:TCOON:005:1,2015-08-11T16:24:00Z,27.6346,-97.2370,0.947,1111122 
TCOON,ioos:station:TCOON:005:1,2015-08-11T17:18:00Z,27.6346,-97.2370,0.951,1111122 
TCOON,ioos:station:TCOON:005:1,2015-08-11T18:18:00Z,27.6346,-97.2370,0.948,1111122 
TCOON,ioos:station:TCOON:005:1,2015-08-11T19:18:00Z,27.6346,-97.2370,0.946,1111122 
TCOON,ioos:station:TCOON:005:1,2015-08-11T20:18:00Z,27.6346,-97.2370,0.938,1111122 
TCOON,ioos:station:TCOON:005:1,2015-08-11T21:18:00Z,27.6346,-97.2370,0.938,1111122 
TCOON,ioos:station:TCOON:005:1,2015-08-11T22:12:00Z,27.6346,-97.2370,0.927,1111122 
TCOON,ioos:station:TCOON:005:1,2015-08-11T23:18:00Z,27.6346,-97.2370,0.912,1111122 
TCOON,ioos:station:TCOON:005:1,2015-08-12T00:18:00Z,27.6346,-97.2370,0.891,1111122 
TCOON,ioos:station:TCOON:005:1,2015-08-12T01:12:00Z,27.6346,-97.2370,0.874,1111122 
TCOON,ioos:station:TCOON:005:1,2015-08-12T02:12:00Z,27.6346,-97.2370,0.861,1111122 
TCOON,ioos:station:TCOON:005:1,2015-08-12T03:12:00Z,27.6346,-97.2370,0.846,1111122 
TCOON,ioos:station:TCOON:005:1,2015-08-12T04:12:00Z,27.6346,-97.2370,0.837,1111122 
TCOON,ioos:station:TCOON:005:1,2015-08-12T05:12:00Z,27.6346,-97.2370,0.839,1111122 
TCOON,ioos:station:TCOON:005:1,2015-08-12T06:12:00Z,27.6346,-97.2370,0.847,1111122 
TCOON,ioos:station:TCOON:005:1,2015-08-12T07:54:00Z,27.6346,-97.2370,0.859,1111122 
TCOON,ioos:station:TCOON:005:1,2015-08-12T08:18:00Z,27.6346,-97.2370,0.866,1111122 
TCOON,ioos:station:TCOON:005:1,2015-08-12T09:12:00Z,27.6346,-97.2370,0.877,1111122 
TCOON,ioos:station:TCOON:005:1,2015-08-12T10:12:00Z,27.6346,-97.2370,0.892,1111122 
TCOON,ioos:station:TCOON:005:1,2015-08-12T11:18:00Z,27.6346,-97.2370,0.918,1111122 
TCOON,ioos:station:TCOON:005:1,2015-08-12T12:18:00Z,27.6346,-97.2370,0.939,1111122 
TCOON,ioos:station:TCOON:005:1,2015-08-12T13:12:00Z,27.6346,-97.2370,0.946,1111122 
TCOON,ioos:station:TCOON:005:1,2015-08-12T14:12:00Z,27.6346,-97.2370,0.96,1111122 
TCOON,ioos:station:TCOON:005:1,2015-08-12T15:12:00Z,27.6346,-97.2370,0.966,1111122 
TCOON,ioos:station:TCOON:005:1,2015-08-12T16:12:00Z,27.6346,-97.2370,0.962,1111122 
TCOON,ioos:station:TCOON:005:1,2015-08-12T17:18:00Z,27.6346,-97.2370,0.977,1111122 
TCOON,ioos:station:TCOON:005:1,2015-08-12T18:12:00Z,27.6346,-97.2370,0.983,1111122 
TCOON,ioos:station:TCOON:005:1,2015-08-12T19:12:00Z,27.6346,-97.2370,0.981,1111122 
TCOON,ioos:station:TCOON:005:1,2015-08-12T20:18:00Z,27.6346,-97.2370,0.989,1111122 
TCOON,ioos:station:TCOON:005:1,2015-08-12T21:36:00Z,27.6346,-97.2370,0.979,1111122 
TCOON,ioos:station:TCOON:005:1,2015-08-12T23:00:00Z,27.6346,-97.2370,0.962,1111122 
TCOON,ioos:station:TCOON:005:1,2015-08-13T00:12:00Z,27.6346,-97.2370,0.941,1111122 
TCOON,ioos:station:TCOON:005:1,2015-08-13T01:18:00Z,27.6346,-97.2370,0.926,1111122 
TCOON,ioos:station:TCOON:005:1,2015-08-13T02:18:00Z,27.6346,-97.2370,0.911,1111122 
TCOON,ioos:station:TCOON:005:1,2015-08-13T03:24:00Z,27.6346,-97.2370,0.9,1111122 
TCOON,ioos:station:TCOON:005:1,2015-08-13T04:12:00Z,27.6346,-97.2370,0.889,1111122 
TCOON,ioos:station:TCOON:005:1,2015-08-13T05:18:00Z,27.6346,-97.2370,0.879,1111122 
TCOON,ioos:station:TCOON:005:1,2015-08-13T06:18:00Z,27.6346,-97.2370,0.879,1111122 
TCOON,ioos:station:TCOON:005:1,2015-08-13T07:48:00Z,27.6346,-97.2370,0.885,1111122 
TCOON,ioos:station:TCOON:005:1,2015-08-13T08:18:00Z,27.6346,-97.2370,0.884,1111122 
TCOON,ioos:station:TCOON:005:1,2015-08-13T09:12:00Z,27.6346,-97.2370,0.895,1111122 
TCOON,ioos:station:TCOON:005:1,2015-08-13T10:12:00Z,27.6346,-97.2370,0.911,1111122 
TCOON,ioos:station:TCOON:005:1,2015-08-13T11:12:00Z,27.6346,-97.2370,0.924,1111122 
TCOON,ioos:station:TCOON:005:1,2015-08-13T12:12:00Z,27.6346,-97.2370,0.935,1111122 
TCOON,ioos:station:TCOON:005:1,2015-08-13T13:12:00Z,27.6346,-97.2370,0.942,1111122 
TCOON,ioos:station:TCOON:005:1,2015-08-13T14:12:00Z,27.6346,-97.2370,0.953,1111122 
TCOON,ioos:station:TCOON:005:1,2015-08-13T15:12:00Z,27.6346,-97.2370,0.959,1111122 
TCOON,ioos:station:TCOON:005:1,2015-08-13T16:12:00Z,27.6346,-97.2370,0.97,1111122 
TCOON,ioos:station:TCOON:005:1,2015-08-13T17:12:00Z,27.6346,-97.2370,0.964,1111122 
TCOON,ioos:station:TCOON:005:1,2015-08-13T18:12:00Z,27.6346,-97.2370,0.965,1111122 
TCOON,ioos:station:TCOON:005:1,2015-08-13T19:12:00Z,27.6346,-97.2370,0.968,1111122 
TCOON,ioos:station:TCOON:005:1,2015-08-13T20:18:00Z,27.6346,-97.2370,0.978,1111122 
TCOON,ioos:station:TCOON:005:1,2015-08-13T21:12:00Z,27.6346,-97.2370,0.977,1111122 
TCOON,ioos:station:TCOON:005:1,2015-08-13T22:24:00Z,27.6346,-97.2370,0.967,1111122 
TCOON,ioos:station:TCOON:005:1,2015-08-13T23:12:00Z,27.6346,-97.2370,0.952,1111122 
TCOON,ioos:station:TCOON:005:1,2015-08-14T00:12:00Z,27.6346,-97.2370,0.943,1111122 
TCOON,ioos:station:TCOON:005:1,2015-08-14T01:12:00Z,27.6346,-97.2370,0.937,1111122 
TCOON,ioos:station:TCOON:005:1,2015-08-14T02:12:00Z,27.6346,-97.2370,0.922,1111122 
TCOON,ioos:station:TCOON:005:1,2015-08-14T03:12:00Z,27.6346,-97.2370,0.908,1111122 
TCOON,ioos:station:TCOON:005:1,2015-08-14T04:18:00Z,27.6346,-97.2370,0.888,1111122 
TCOON,ioos:station:TCOON:005:1,2015-08-14T05:18:00Z,27.6346,-97.2370,0.877,1111122 
TCOON,ioos:station:TCOON:005:1,2015-08-14T06:18:00Z,27.6346,-97.2370,0.874,1111122 
TCOON,ioos:station:TCOON:005:1,2015-08-14T08:00:00Z,27.6346,-97.2370,0.887,1111122 
TCOON,ioos:station:TCOON:005:1,2015-08-14T09:12:00Z,27.6346,-97.2370,0.89,1111122 
TCOON,ioos:station:TCOON:005:1,2015-08-14T10:12:00Z,27.6346,-97.2370,0.897,1111122 
TCOON,ioos:station:TCOON:005:1,2015-08-14T11:12:00Z,27.6346,-97.2370,0.906,1111122 
TCOON,ioos:station:TCOON:005:1,2015-08-14T12:12:00Z,27.6346,-97.2370,0.915,1111122 
TCOON,ioos:station:TCOON:005:1,2015-08-14T13:12:00Z,27.6346,-97.2370,0.926,1111122 
TCOON,ioos:station:TCOON:005:1,2015-08-14T14:12:00Z,27.6346,-97.2370,0.939,1111122 
TCOON,ioos:station:TCOON:005:1,2015-08-14T15:12:00Z,27.6346,-97.2370,0.945,1111122 
TCOON,ioos:station:TCOON:005:1,2015-08-14T16:12:00Z,27.6346,-97.2370,0.952,1111122 
TCOON,ioos:station:TCOON:005:1,2015-08-14T17:12:00Z,27.6346,-97.2370,0.954,1111122 
TCOON,ioos:station:TCOON:005:1,2015-08-14T18:12:00Z,27.6346,-97.2370,0.956,1111122 
TCOON,ioos:station:TCOON:005:1,2015-08-14T19:12:00Z,27.6346,-97.2370,0.96,1111122 
TCOON,ioos:station:TCOON:005:1,2015-08-14T20:12:00Z,27.6346,-97.2370,0.968,1111122 
TCOON,ioos:station:TCOON:005:1,2015-08-14T21:12:00Z,27.6346,-97.2370,0.974,1111122 
TCOON,ioos:station:TCOON:005:1,2015-08-14T22:18:00Z,27.6346,-97.2370,0.971,1111122 
TCOON,ioos:station:TCOON:005:1,2015-08-14T23:12:00Z,27.6346,-97.2370,0.953,1111122 